Location: Laas
(43.4693°N, 0.3073°E)
Time: 14:49:42
(UTC+00:00)

Meteor 2-10 Rocket - Pass Details

Date: 25 October 2020
Orbit: 733 x 885 km, 81.2° (Epoch: 23 November)

Event Time Altitude Azimuth Distance (km) Brightness Sun altitude
Rises 19:24:16 0° 203° (SSW) 3,334 7.0 -26.9°
Reaches altitude 10° 19:26:45 10° 209° (SSW) 2,382 6.2 -27.3°
Maximum altitude 19:31:57 50° 284° (WNW) 994 4.3 -28.3°
Drops below altitude 10° 19:37:00 10° 360° (N) 2,306 6.1 -29.2°
Sets 19:39:23 0° 6° (N) 3,218 6.8 -29.6°
